This is the latest recevied weather packets stored in our database for station/object KG5WBN. If no packets are shown the sender has not sent any weather packets the latest 10 day(s).
| Time | Temp. | Humidity | Pressure | Rain* | Wind** | Luminosity | Snow |
|---|---|---|---|---|---|---|---|
| 1778024579 | 26.11° C | 50% | 1010.8 hPa | 0 mm | - | 50 W/m² | - |
| 1778024275 | 26.67° C | 49% | 1011.2 hPa | 0 mm | - | 72 W/m² | - |
| 1778023974 | 26.11° C | 49% | 1011.2 hPa | 0 mm | - | 67 W/m² | - |
| 1778023670 | 26.11° C | 49% | 1011.2 hPa | 0 mm | - | 53 W/m² | - |
| 1778023368 | 26.67° C | 48% | 1010.8 hPa | 0 mm | - | 45 W/m² | - |
| 1778023064 | 26.67° C | 48% | 1011.2 hPa | 0 mm | - | 41 W/m² | - |
| 1778022763 | 26.67° C | 47% | 1011.2 hPa | 0 mm | - | 49 W/m² | - |
| 1778022461 | 26.67° C | 46% | 1011.2 hPa | 0 mm | - | 52 W/m² | - |
| 1778022157 | 27.22° C | 46% | 1011.2 hPa | 0 mm | - | 47 W/m² | - |
| 1778021854 | 27.22° C | 45% | 1011.2 hPa | 0 mm | - | 93 W/m² | - |
| 1778021551 | 26.67° C | 45% | 1011.2 hPa | 0 mm | - | 81 W/m² | - |
| 1778021246 | 26.67° C | 45% | 1011.5 hPa | 0 mm | - | 67 W/m² | - |
| 1778020944 | 26.67° C | 45% | 1011.2 hPa | 0 mm | - | 61 W/m² | - |
| 1778020642 | 27.22° C | 44% | 1011.2 hPa | 0 mm | - | 85 W/m² | - |
| 1778020338 | 27.22° C | 43% | 1011.2 hPa | 0 mm | - | 105 W/m² | - |
| 1778020033 | 27.22° C | 43% | 1011.5 hPa | 0 mm | - | 100 W/m² | - |
| 1778019730 | 27.22° C | 42% | 1010.8 hPa | 0 mm | - | 95 W/m² | - |
| 1778019428 | 28.33° C | 44% | 1011.2 hPa | 0 mm | - | 120 W/m² | - |
| 1778019124 | 28.33° C | 43% | 1010.8 hPa | 0 mm | - | 130 W/m² | - |
| 1778018821 | 29.44° C | 39% | 1011.2 hPa | 0 mm | - | 232 W/m² | - |
| 1778018519 | 28.89° C | 40% | 1011.2 hPa | 0 mm | - | 116 W/m² | - |
| 1778018216 | 28.89° C | 42% | 1011.2 hPa | 0 mm | - | 299 W/m² | - |
| 1778017914 | 27.78° C | 45% | 1011.2 hPa | 0 mm | - | 344 W/m² | - |
| 1778017612 | 27.22° C | 44% | 1011.2 hPa | 0 mm | - | 120 W/m² | - |
| 1778017309 | 27.22° C | 44% | 1011.2 hPa | 0 mm | - | 114 W/m² | - |
* Rain latest hour (hover to see other rain measurements)
** Current wind speed in m/s (hover to see current wind gust speed)